Rizky Supriadi

Chefscout - PSIM
3 Apr 2027
Samstag
Verarbeitung

Persönlichkeit

Anpassungsfähigkeit (15) Ehrgeiz (18) Kontroverse (9) Loyalität (16) Druck (6) Professionalität (13) Fairness (6) Temperament (12)

Profil

Trainerstil Demokratisch
Lizenz Kontinentale Pro
Entschlossenheit 7
Menschenführung 4
Motivation 4
Disziplin 3
Arbeitszufriedenheit
70%
Ermüdung
0%
Rolle Chefscout
Gehalt 17.9K p/W
Vertrag 14.03.2030

Leistung

Verhalten Gut
Trainingseffektivität
22%
Spielerentwicklung
45%
Verletzungsprävention
10%
Taktische Umsetzung
35%

Letzte Ereignisse

Nahm an einer Scouting-Besprechung teil jetzt
Spieler begutachtet jetzt
Nahm an einer Scouting-Besprechung teil 7T her
Spieler begutachtet 7T her
Spieler begutachtet 7T her
Spieler begutachtet 7T her
Spieler begutachtet 7T her
Spieler begutachtet 7T her

Aktuell beobachtet

131
Spieler Verein Status Fähigkeit Vertrauen Beobachtet Zuletzt beobachtet Letzte Stimme
Martín Garnerone Estudiantes Aktiv 112 / 96 40% 4 02.04.2027 -
Jaiden Kucharski Perth Glory Aktiv 87 / 86 40% 1 02.04.2027 -
Lewis McCann Fleetwood Town Aktiv 87 / 105 40% 6 31.03.2027 -
Juan David Rueda Alianza Petrolera Aktiv 106 / 106 40% 1 31.03.2027 -
Alexander Jeremejeff Persija Aktiv 109 / 113 40% 5 30.03.2027 -
Marcelo Estigarribia Unión de Santa Fe Aktiv 109 / 112 40% 1 30.03.2027 -
Leonardo Bellini Pianese Aktiv 83 / 94 40% 2 28.03.2027 -
Dilan Neves Benfica Aktiv 63 / 90 40% 1 28.03.2027 -
Mitchell Duke Macarthur FC Aktiv 129 / 103 40% 4 27.03.2027 -
Rodrigo Marquês Oliveirense Aktiv 106 / 111 40% 2 26.03.2027 -
José Bica Leixões Aktiv 95 / 115 40% 2 26.03.2027 -
Enzo Avaro Mitre Aktiv 108 / 128 40% 1 25.03.2027 -
Anthony Didulica Perth Glory Aktiv 76 / 102 40% 1 25.03.2027 -
Nathan Mbala FC Metz Aktiv 99 / 100 40% 2 23.03.2027 -
Mason Bennett Harrogate Town Aktiv 96 / 69 40% 3 22.03.2027 -
Jort van der Sande Bali United Aktiv 95 / 106 40% 4 20.03.2027 -
Conor McAleny Harrogate Town Aktiv 86 / 70 40% 2 20.03.2027 -
Francesco Nicastro Vis Pesaro Aktiv 107 / 93 40% 3 18.03.2027 -
Jamie Reid Stevenage Aktiv 96 / 96 40% 5 17.03.2027 -
Kane Drummond Oldham Athletic Aktiv 103 / 89 40% 3 17.03.2027 -
Luca Maiorano Waasland-Beveren Aktiv 90 / 91 40% 2 16.03.2027 -
Elia Petrelli Forli Aktiv 86 / 80 40% 1 16.03.2027 -
Jurgen Degabriele Hibernians Aktiv 77 / 81 40% 3 15.03.2027 -
Josh Woods Accrington Stanley Aktiv 71 / 70 40% 3 12.03.2027 -
Elliott List Northampton Town Aktiv 108 / 101 40% 2 11.03.2027 -
Jordan Roberts Stevenage Aktiv 103 / 129 40% 6 11.03.2027 -
Mésaque Djú Portimonense Aktiv 88 / 97 40% 2 09.03.2027 -
Brandon Hanlan Doncaster Rovers Aktiv 114 / 110 40% 6 08.03.2027 -
Sagiv Jehezkel Maccabi Tel Aviv Aktiv 113 / 98 40% 3 08.03.2027 -
Gaspar Gentile Alianza Lima Aktiv 126 / 95 40% 3 03.03.2027 -
Callum Robinson Cardiff City Aktiv 107 / 107 40% 1 03.03.2027 -
Tiquinho Soares Botafogo Aktiv 128 / 137 40% 2 02.03.2027 -
Ibourahima Baldé Giugliano Aktiv 99 / 80 40% 1 01.03.2027 -
Jaze Kabia Grimsby Town Aktiv 86 / 77 40% 2 28.02.2027 -
Osnar Noronha Cesar Vallejo Aktiv 101 / 127 40% 1 28.02.2027 -
Promise Omochere Bristol Rovers Aktiv 102 / 110 40% 2 26.02.2027 -
Sam Nombe Milton Keynes Dons Aktiv 115 / 99 40% 7 25.02.2027 -
Paul Glatzel Swindon Town Aktiv 94 / 113 40% 3 22.02.2027 -
Shawn McCoulsky Harrogate Town Aktiv 91 / 82 40% 3 21.02.2027 -
Ged Garner Newport County Aktiv 93 / 63 40% 1 19.02.2027 -
Luis Fernando Santa Clara Aktiv 98 / 107 40% 1 18.02.2027 -
Néstor Albiach Getafe Aktiv 93 / 113 40% 1 16.02.2027 -
Yann Kitala Vizela Aktiv 119 / 117 40% 1 15.02.2027 -
Jordan Bowery Mansfield Town Aktiv 116 / 93 40% 1 12.02.2027 -
José Mendes Sporting CP Aktiv 75 / 97 40% 2 05.02.2027 -
Mo Dauda Portimonense Aktiv 99 / 96 40% 1 03.02.2027 -
Kamarai Swyer Northampton Town Aktiv 86 / 93 40% 1 02.02.2027 -
Rafael Struick Dewa United Aktiv 96 / 105 40% 3 31.01.2027 -
Júnior Brandão Madura United Aktiv 110 / 93 40% 3 31.01.2027 -
Alejandro Melo Temperley Aktiv 118 / 135 40% 4 30.01.2027 -
Hakeeb Adelakun Doncaster Rovers Aktiv 102 / 123 40% 2 30.01.2027 -
David Terans Fluminense Aktiv 129 / 111 40% 1 28.01.2027 -
Will Davies Fleetwood Town Aktiv 76 / 89 40% 1 27.01.2027 -
Louis Appéré Cambridge United Aktiv 91 / 99 40% 5 26.01.2027 -
Simone Ianesi Pianese Aktiv 91 / 88 40% 2 26.01.2027 -
Aaron Drinan Swindon Town Aktiv 108 / 104 40% 1 23.01.2027 -
Ezra Walian Persik Aktiv 109 / 87 40% 1 21.01.2027 -
Kianz Froese Semen Padang Aktiv 104 / 98 40% 2 19.01.2027 -
Pietro Cianci Arezzo Aktiv 98 / 111 40% 1 19.01.2027 -
Marcos Cuenca Zaragoza Aktiv 103 / 127 40% 1 17.01.2027 -
Matty Stevens AFC Wimbledon Aktiv 120 / 95 40% 2 16.01.2027 -
Amani Richards Milton Keynes Dons Aktiv 102 / 100 40% 1 15.01.2027 -
Luis Silba Madryn Aktiv 111 / 127 40% 1 15.01.2027 -
Tyrese Shade Burton Albion Abgelehnt 86 / 87 40% 9 14.01.2027 Ablehnen
Luka Reischl ADO Den Haag Aktiv 112 / 100 40% 1 08.01.2027 -
Valdeci Arema Aktiv 112 / 104 40% 2 03.01.2027 -
Rakhmatsho Rakhmatzoda Persijap Abgelehnt 91 / 90 62% 1 03.01.2027 Ablehnen
Yannik Wagner Heidenheim Aktiv 86 / 121 40% 1 03.01.2027 -
Danilo Santacruz Madura United Aktiv 106 / 116 40% 4 02.01.2027 -
Marcus Browne AFC Wimbledon Aktiv 97 / 100 40% 1 29.12.2026 -
Daniel Udoh Salford City Abgelehnt 109 / 110 40% 3 27.12.2026 Ablehnen
Sudi Abdallah Persijap Aktiv 84 / 85 40% 2 27.12.2026 -
Lucas Morelatto Persijap Aktiv 94 / 107 40% 1 23.12.2026 -
Gustavo França Arema Abgelehnt 98 / 110 40% 2 21.12.2026 Mehr Infos nötig
Lucas González Estudiantes Abgelehnt 108 / 108 40% 3 20.12.2026 Ablehnen
Sheriddin Boboev PSM Aktiv 103 / 96 40% 3 20.12.2026 -
Mihailo Perović Persebaya Aktiv 96 / 85 40% 3 19.12.2026 -
Mauro Albertengo Colegiales Aktiv 109 / 121 40% 1 19.12.2026 -
Claudio Salto Almagro Aktiv 119 / 116 40% 2 17.12.2026 -
Jack Vale Alcione Milano Aktiv 93 / 83 40% 1 17.12.2026 -
Moussa Sidibé Bhayangkara Presisi Aktiv 94 / 95 40% 3 16.12.2026 -
Dimitar Mitkov Madura United Abgelehnt 106 / 98 40% 2 13.12.2026 Mehr Infos nötig
Javier Martínez Almirante Brown Abgelehnt 108 / 112 40% 2 10.12.2026 Mehr Infos nötig
Alexandre Ramalingom Persita Aktiv 102 / 97 40% 5 09.12.2026 -
Diego Campos Bali United Abgelehnt 106 / 122 40% 3 08.12.2026 Ablehnen
Sajjad Shahbazzadeh Persis Aktiv 103 / 102 40% 3 05.12.2026 -
Juan Mendoza Güemes Aktiv 104 / 97 40% 2 04.12.2026 -
Jacques Thémopelé PSM Aktiv 94 / 91 40% 1 01.12.2026 -
Mateus Castro Nagoya Grampus Aktiv 131 / 129 40% 1 30.11.2026 -
Juan Cruz Zurbriggen San Telmo Aktiv 101 / 92 40% 3 28.11.2026 -
Abdoulaye Diarra Persijap Aktiv 102 / 86 40% 1 23.11.2026 -
Jude Soonsup-Bell Hapoel Acre Aktiv 93 / 88 40% 1 20.11.2026 -
Boris Kopitović Bali United Aktiv 96 / 84 40% 2 16.11.2026 -
Koldo Obieta Aktiv 99 / 93 40% 2 12.11.2026 -
Milan Ristovski Bhayangkara Presisi Aktiv 112 / 103 40% 2 08.11.2026 -
Dalberto Arema Aktiv 111 / 120 40% 2 07.11.2026 -
Alexis Gómez Persijap Aktiv 89 / 87 40% 1 04.11.2026 -
Alex Aktiv 105 / 112 40% 1 02.11.2026 -
Manprit Sarkaria Austria Wien Aktiv 107 / 136 40% 2 01.11.2026 -
Ivo Costantino Danubio Aktiv 124 / 133 40% 3 01.11.2026 -
Alfredo Mejia Cortulua Aktiv 85 / 92 40% 1 31.10.2026 -
Alejandro Valencia La Equidad Aktiv 131 / 134 40% 2 25.10.2026 -
Ahmad Noviandani Madura United Aktiv 77 / 69 40% 1 25.10.2026 -
Sergio Castel Persik Aktiv 119 / 113 40% 2 22.10.2026 -
Brian Blando Agropecuario Argentino Aktiv 126 / 113 40% 1 18.10.2026 -
Joel Arema Aktiv 92 / 79 40% 1 15.10.2026 -
Samy Merheg Alverca Aktiv 93 / 96 40% 1 13.10.2026 -
Diego Maurício Semen Padang Aktiv 100 / 110 40% 1 13.10.2026 -
Abu Kamara Persis Aktiv 90 / 101 40% 2 11.10.2026 -
Ricardo Valente Mattersburg Aktiv 106 / 87 40% 2 09.10.2026 -
Ramon Tanque Persib Aktiv 97 / 103 40% 1 09.10.2026 -
Alejandro Samudio Nacional Aktiv 107 / 96 40% 1 04.10.2026 -
Bernard Henri Doumbia Bhayangkara Presisi Aktiv 95 / 75 40% 2 27.09.2026 -
Yacob Sayuri Maluku Utara United Aktiv 86 / 92 40% 1 27.09.2026 -
Dejan Tumbas Persis Aktiv 102 / 104 40% 1 26.09.2026 -
Riquelme Madura United Aktiv 112 / 114 40% 1 25.09.2026 -
Sávio PSM Aktiv 108 / 114 40% 1 24.09.2026 -
Rodrigo Persik Aktiv 78 / 85 40% 1 23.09.2026 -
Francisco Galván Deportivo Municipal Aktiv 109 / 93 40% 1 16.09.2026 -
Lautaro Díaz San Martín Aktiv 70 / 82 40% 1 15.09.2026 -
Víctor Salazar Deportes Tolima Aktiv 105 / 87 40% 1 15.09.2026 -
Alan Salas San Lorenzo Aktiv 80 / 107 40% 1 13.09.2026 -
Alejandro Aquino Chaco For Ever Aktiv 106 / 97 40% 1 09.09.2026 -
Sebastián Cocimano Nueva Chicago Aktiv 124 / 114 40% 1 06.09.2026 -
Ousmane Diawara Altach Aktiv 91 / 120 40% 1 06.09.2026 -
Cecilio Waterman Fenix Aktiv 121 / 104 40% 1 04.09.2026 -
Reuben Reid Charlton Athletic Aktiv 107 / 97 40% 1 31.08.2026 -
Guillermo Fratta Deportivo Tachira Aktiv 121 / 118 40% 1 02.08.2026 -
Jhon Gamboa Envigado Aktiv 110 / 101 40% 1 02.08.2026 -
José Ortiz Atletico Bucaramanga Aktiv 113 / 98 40% 1 01.08.2026 -
Jhojan Torres Santa Fe Aktiv 131 / 125 40% 1 01.08.2026 -